Location: Unspecified
(0.0000°N, 0.0000°E)
Time: 03:39:13
(UTC+00:00)

Vanguard 1 - Pass Details

Date: 12 December 2023
Orbit: 653 x 3826 km, 34.3° (Epoch: 22 February)

Event Time Altitude Azimuth Distance (km) Brightness Sun altitude
Rises 23:44:48 0° 309° (NW) 7,794 14.5 -66.9°
Enters shadow 23:46:01 - 309° (NW) 7,582 14.4 -66.9°
Reaches altitude 10° 23:49:58 10° 310° (NW) 6,886 - -66.9°
Maximum altitude 00:13:53 85° 38° (NE) 3,389 - -66.4°
Exits shadow 00:25:12 30° 124° (ESE) 4,074 13.1 -65.7°
Drops below altitude 10° 00:30:08 10° 125° (SE) 4,990 13.8 -65.3°
Sets 00:33:11 0° 125° (SE) 5,663 14.3 -65.0°
